| time (UTC) | temp F | wind direction | speed knots | gust knots | rain 1hr in | rain 24hr in | rain mn in | humidity % | barometer mb |
| 20260507070611 | 42 | 114 | 0.0 | 0.0 | 0.00 | 0.27 | 0.00 | 93 | 999.7 |
| 20260507070107 | 42 | 123 | 0.0 | 0.0 | 0.00 | 0.27 | 0.00 | 93 | 999.7 |
| 20260507065606 | 43 | 132 | 0.0 | 0.0 | 0.00 | 0.27 | 0.00 | 93 | 999.7 |
| 20260507065107 | 43 | 84 | 0.0 | 2.6 | 0.00 | 0.27 | 0.00 | 93 | 999.8 |
| 20260507064608 | 43 | 112 | 0.0 | 0.0 | 0.00 | 0.27 | 0.00 | 92 | 999.8 |
| 20260507064105 | 43 | 165 | 0.0 | 0.0 | 0.00 | 0.27 | 0.00 | 92 | 999.8 |
| 20260507063606 | 43 | 117 | 4.3 | 4.3 | 0.00 | 0.27 | 0.00 | 92 | 999.8 |
| 20260507063035 | 43 | 104 | 0.9 | 0.0 | 0.00 | 0.27 | 0.00 | 92 | 999.8 |
| 20260507062535 | 43 | 145 | 1.7 | 1.7 | 0.00 | 0.27 | 0.00 | 92 | 999.9 |
| 20260507062037 | 43 | 168 | 0.0 | 0.0 | 0.00 | 0.27 | 0.00 | 92 | 999.9 |
| 20260507061534 | 44 | 73 | 0.9 | 0.0 | 0.00 | 0.27 | 0.00 | 92 | 1000.0 |
| 20260507061036 | 44 | 176 | 5.2 | 4.3 | 0.00 | 0.27 | 0.00 | 92 | 1000.0 |
| 20260507060537 | 43 | 187 | 4.3 | 2.6 | 0.00 | 0.27 | 0.00 | 92 | 1000.0 |
| 20260507060036 | 43 | 122 | 1.7 | 1.7 | 0.00 | 0.27 | 0.00 | 92 | 1000.1 |
| 20260507055538 | 43 | 197 | 2.6 | 2.6 | 0.00 | 0.27 | 0.00 | 92 | 1000.1 |
| 20260507055038 | 43 | 188 | 2.6 | 2.6 | 0.00 | 0.27 | 0.00 | 92 | 1000.2 |
| 20260507054505 | 43 | 190 | 2.6 | 2.6 | 0.00 | 0.27 | 0.00 | 92 | 1000.2 |
| 20260507054004 | 43 | 181 | 2.6 | 4.3 | 0.00 | 0.27 | 0.00 | 92 | 1000.2 |
| 20260507053505 | 43 | 189 | 0.0 | 0.0 | 0.00 | 0.27 | 0.00 | 92 | 1000.2 |
| 20260507053006 | 43 | 171 | 0.0 | 0.0 | 0.00 | 0.27 | 0.00 | 92 | 1000.2 |
| 20260507052505 | 43 | 161 | 0.0 | 0.0 | 0.00 | 0.27 | 0.00 | 92 | 1000.3 |
| 20260507052005 | 43 | 182 | 0.9 | 0.0 | 0.00 | 0.27 | 0.00 | 92 | 1000.3 |
| 20260507051508 | 43 | 138 | 0.9 | 1.7 | 0.00 | 0.27 | 0.00 | 92 | 1000.5 |
| 20260507051005 | 43 | 215 | 4.3 | 4.3 | 0.00 | 0.27 | 0.00 | 92 | 1000.5 |
| 20260507050505 | 43 | 183 | 0.0 | 0.0 | 0.00 | 0.27 | 0.00 | 92 | 1000.5 |
| 20260507045936 | 43 | 151 | 1.7 | 2.6 | 0.00 | 0.27 | 0.00 | 92 | 1000.7 |
| 20260507045434 | 43 | 323 | 2.6 | 4.3 | 0.00 | 0.27 | 0.00 | 92 | 1000.7 |
| 20260507044937 | 43 | 202 | 0.0 | 0.0 | 0.00 | 0.27 | 0.00 | 92 | 1000.9 |
| 20260507044434 | 43 | 155 | 0.9 | 1.7 | 0.00 | 0.27 | 0.00 | 92 | 1000.9 |
| 20260507043935 | 43 | 97 | 0.9 | 1.7 | 0.00 | 0.27 | 0.00 | 92 | 1001.0 |
| 20260507043435 | 43 | 158 | 0.0 | 0.0 | 0.00 | 0.27 | 0.00 | 92 | 1001.0 |
| 20260507042935 | 43 | 149 | 0.0 | 0.0 | 0.00 | 0.27 | 0.00 | 92 | 1001.0 |
| 20260507042434 | 43 | 160 | 2.6 | 1.7 | 0.00 | 0.27 | 0.00 | 92 | 1001.1 |
| 20260507041934 | 43 | 153 | 0.9 | 1.7 | 0.00 | 0.27 | 0.00 | 92 | 1001.1 |
| 20260507041436 | 43 | 188 | 0.9 | 1.7 | 0.00 | 0.27 | 0.00 | 92 | 1001.1 |
| 20260507040934 | 43 | 180 | 1.7 | 1.7 | 0.00 | 0.27 | 0.00 | 92 | 1001.1 |
| 20260507040406 | 43 | 145 | 0.0 | 0.0 | 0.00 | 0.27 | 0.00 | 91 | 1001.1 |
| 20260507035904 | 43 | 133 | 0.0 | 0.0 | 0.00 | 0.27 | 0.27 | 91 | 1001.1 |
| 20260507035407 | 43 | 90 | 0.0 | 0.0 | 0.00 | 0.27 | 0.27 | 91 | 1001.1 |
| 20260507034904 | 44 | 156 | 0.0 | 0.0 | 0.00 | 0.27 | 0.27 | 91 | 1001.2 |
| 20260507033904 | 43 | 112 | 0.0 | 0.0 | 0.00 | 0.27 | 0.27 | 90 | 1001.2 |
| 20260507033404 | 44 | 130 | 0.0 | 0.0 | 0.00 | 0.27 | 0.27 | 90 | 1001.2 |
| 20260507032904 | 44 | 109 | 0.0 | 0.0 | 0.00 | 0.27 | 0.27 | 89 | 1001.2 |
| 20260507032405 | 44 | 124 | 0.0 | 0.0 | 0.00 | 0.27 | 0.27 | 89 | 1001.3 |
| 20260507031404 | 44 | 106 | 0.0 | 0.0 | 0.00 | 0.27 | 0.27 | 87 | 1001.4 |
| 20260507030903 | 44 | 90 | 0.0 | 0.0 | 0.00 | 0.27 | 0.27 | 88 | 1001.4 |
| 20260507030403 | 45 | 182 | 0.0 | 0.0 | 0.00 | 0.27 | 0.27 | 88 | 1001.3 |
| 20260507025906 | 45 | 199 | 0.9 | 1.7 | 0.00 | 0.27 | 0.27 | 87 | 1001.3 |
| 20260507025335 | 45 | 148 | 0.0 | 0.0 | 0.00 | 0.27 | 0.27 | 86 | 1001.3 |
| 20260507024835 | 45 | 162 | 0.0 | 0.0 | 0.00 | 0.27 | 0.27 | 86 | 1001.3 |
| 20260507024335 | 45 | 140 | 1.7 | 1.7 | 0.00 | 0.27 | 0.27 | 86 | 1001.3 |
| 20260507023803 | 45 | 220 | 5.2 | 4.3 | 0.00 | 0.27 | 0.27 | 85 | 1001.4 |
| 20260507023303 | 45 | 207 | 2.6 | 2.6 | 0.00 | 0.27 | 0.27 | 85 | 1001.4 |
| 20260507022734 | 46 | 214 | 4.3 | 1.7 | 0.00 | 0.27 | 0.27 | 85 | 1001.6 |
| 20260507022237 | 46 | 164 | 4.3 | 4.3 | 0.00 | 0.27 | 0.27 | 85 | 1001.6 |
| 20260507021733 | 46 | 198 | 7.0 | 4.3 | 0.00 | 0.27 | 0.27 | 84 | 1001.6 |
| 20260507021234 | 46 | 180 | 0.9 | 1.7 | 0.00 | 0.27 | 0.27 | 84 | 1001.7 |
| 20260507020734 | 46 | 181 | 2.6 | 5.2 | 0.00 | 0.27 | 0.27 | 84 | 1001.7 |
| 20260507020237 | 46 | 227 | 4.3 | 5.2 | 0.00 | 0.27 | 0.27 | 83 | 1001.7 |
| 20260507015703 | 46 | 229 | 2.6 | 5.2 | 0.00 | 0.27 | 0.27 | 83 | 1001.7 |
| 20260507014705 | 46 | 223 | 0.9 | 0.0 | 0.00 | 0.27 | 0.27 | 83 | 1001.8 |
| 20260507014204 | 46 | 309 | 2.6 | 4.3 | 0.00 | 0.27 | 0.27 | 83 | 1001.8 |
| 20260507013705 | 46 | 117 | 1.7 | 1.7 | 0.00 | 0.27 | 0.27 | 83 | 1001.7 |
| 20260507013135 | 46 | 155 | 4.3 | 2.6 | 0.00 | 0.27 | 0.27 | 82 | 1001.7 |
| 20260507012635 | 46 | 179 | 5.2 | 4.3 | 0.00 | 0.27 | 0.27 | 82 | 1001.8 |
| 20260507010637 | 46 | 213 | 2.6 | 1.7 | 0.00 | 0.27 | 0.27 | 81 | 1001.6 |
| 20260507010134 | 46 | 217 | 2.6 | 5.2 | 0.00 | 0.27 | 0.27 | 80 | 1001.6 |
| 20260507005636 | 46 | 185 | 4.3 | 1.7 | 0.00 | 0.27 | 0.27 | 80 | 1001.6 |
| 20260507005133 | 46 | 183 | 4.3 | 4.3 | 0.00 | 0.27 | 0.27 | 79 | 1001.5 |
| 20260507004632 | 46 | 157 | 2.6 | 1.7 | 0.00 | 0.27 | 0.27 | 79 | 1001.5 |
| 20260507004135 | 46 | 204 | 0.9 | 4.3 | 0.00 | 0.27 | 0.27 | 79 | 1001.5 |
| 20260507003632 | 46 | 215 | 2.6 | 4.3 | 0.00 | 0.27 | 0.27 | 80 | 1001.3 |
| 20260507002602 | 46 | 252 | 0.9 | 1.7 | 0.00 | 0.27 | 0.27 | 80 | 1001.2 |
| 20260507002110 | 46 | 178 | 4.3 | 2.6 | 0.00 | 0.27 | 0.27 | 80 | 1001.2 |
| 20260507001602 | 46 | 159 | 2.6 | 1.7 | 0.00 | 0.27 | 0.27 | 80 | 1001.2 |
| 20260507000608 | 46 | 186 | 1.7 | 1.7 | 0.00 | 0.27 | 0.27 | 79 | 1001.2 |
| 20260506235605 | 47 | 186 | 0.0 | 0.0 | 0.00 | 0.27 | 0.27 | 78 | 1001.1 |
| 20260506235106 | 47 | 165 | 1.7 | 2.6 | 0.00 | 0.27 | 0.27 | 78 | 1001.2 |
| 20260506234607 | 47 | 223 | 1.7 | 1.7 | 0.00 | 0.27 | 0.27 | 77 | 1001.2 |
| 20260506234102 | 47 | 279 | 0.9 | 1.7 | 0.00 | 0.27 | 0.27 | 77 | 1001.1 |
| 20260506233033 | 48 | 160 | 4.3 | 1.7 | 0.00 | 0.27 | 0.27 | 76 | 1001.0 |
| 20260506232536 | 48 | 187 | 2.6 | 1.7 | 0.00 | 0.27 | 0.27 | 76 | 1000.9 |
| 20260506232037 | 48 | 321 | 6.1 | 5.2 | 0.00 | 0.27 | 0.27 | 76 | 1000.9 |
| 20260506231536 | 49 | 163 | 1.7 | 5.2 | 0.00 | 0.27 | 0.27 | 76 | 1000.7 |
| 20260506231034 | 49 | 207 | 6.1 | 4.3 | 0.00 | 0.27 | 0.27 | 76 | 1000.7 |
| 20260506230533 | 49 | 119 | 4.3 | 2.6 | 0.00 | 0.27 | 0.27 | 76 | 1000.8 |
| 20260506230031 | 49 | 204 | 2.6 | 2.6 | 0.00 | 0.27 | 0.27 | 75 | 1000.8 |
| 20260506225502 | 49 | 213 | 4.3 | 4.3 | 0.00 | 0.27 | 0.27 | 74 | 1000.8 |
| 20260506225001 | 49 | 198 | 1.7 | 4.3 | 0.00 | 0.27 | 0.27 | 74 | 1000.8 |
| 20260506224502 | 49 | 206 | 4.3 | 2.6 | 0.00 | 0.27 | 0.27 | 74 | 1000.8 |
| 20260506224001 | 49 | 193 | 4.3 | 5.2 | 0.00 | 0.27 | 0.27 | 75 | 1001.1 |
| 20260506223502 | 50 | 248 | 8.7 | 7.0 | 0.00 | 0.27 | 0.27 | 72 | 1001.1 |
| 20260506223004 | 49 | 240 | 7.8 | 6.1 | 0.00 | 0.27 | 0.27 | 73 | 1001.1 |
| 20260506222502 | 50 | 156 | 1.7 | 1.7 | 0.00 | 0.27 | 0.27 | 74 | 1001.1 |
| 20260506221504 | 50 | 215 | 2.6 | 4.3 | 0.00 | 0.27 | 0.27 | 74 | 1000.9 |
| 20260506221003 | 49 | 83 | 0.0 | 2.6 | 0.00 | 0.27 | 0.27 | 76 | 1000.9 |
| 20260506220001 | 49 | 232 | 7.0 | 5.2 | 0.00 | 0.27 | 0.27 | 74 | 1001.0 |
| 20260506215501 | 49 | 265 | 1.7 | 2.6 | 0.00 | 0.27 | 0.27 | 77 | 1001.0 |
| 20260506214932 | 50 | 234 | 4.3 | 4.3 | 0.00 | 0.27 | 0.27 | 74 | 1000.8 |
| 20260506214431 | 49 | 210 | 5.2 | 4.3 | 0.00 | 0.27 | 0.27 | 75 | 1000.8 |
| 20260506213933 | 49 | 215 | 6.1 | 4.3 | 0.00 | 0.27 | 0.27 | 75 | 1000.9 |
| 20260506213431 | 48 | 238 | 6.1 | 5.2 | 0.00 | 0.27 | 0.27 | 76 | 1000.9 |
| 20260506212931 | 49 | 152 | 1.7 | 1.7 | 0.00 | 0.27 | 0.27 | 76 | 1000.9 |
| 20260506212432 | 49 | 287 | 4.3 | 2.6 | 0.00 | 0.27 | 0.27 | 78 | 1001.0 |
| 20260506211931 | 49 | 115 | 2.6 | 1.7 | 0.00 | 0.27 | 0.27 | 77 | 1001.0 |
| 20260506211431 | 50 | 252 | 5.2 | 2.6 | 0.00 | 0.27 | 0.27 | 74 | 1001.2 |
| 20260506210401 | 50 | 184 | 1.7 | 1.7 | 0.00 | 0.27 | 0.27 | 75 | 1001.1 |
| 20260506205831 | 49 | 280 | 5.2 | 4.3 | 0.00 | 0.27 | 0.27 | 75 | 1001.1 |
| 20260506205331 | 49 | 284 | 0.0 | 0.0 | 0.00 | 0.27 | 0.27 | 74 | 1001.1 |
| 20260506204831 | 49 | 262 | 7.0 | 6.1 | 0.00 | 0.27 | 0.27 | 73 | 1001.2 |
| 20260506204331 | 49 | 238 | 0.9 | 4.3 | 0.00 | 0.27 | 0.27 | 75 | 1001.2 |
| 20260506203800 | 49 | 204 | 5.2 | 5.2 | 0.00 | 0.27 | 0.27 | 75 | 1001.3 |
| 20260506203304 | 49 | 258 | 6.1 | 6.1 | 0.00 | 0.27 | 0.27 | 76 | 1001.3 |
| 20260506202801 | 49 | 315 | 2.6 | 1.7 | 0.00 | 0.27 | 0.27 | 75 | 1001.2 |
| 20260506202306 | 49 | 142 | 5.2 | 4.3 | 0.00 | 0.27 | 0.27 | 76 | 1001.2 |
| 20260506201732 | 49 | 222 | 4.3 | 4.3 | 0.00 | 0.27 | 0.27 | 77 | 1001.2 |
| 20260506201232 | 50 | 246 | 4.3 | 5.2 | 0.00 | 0.27 | 0.27 | 75 | 1001.3 |
| 20260506200705 | 49 | 136 | 0.9 | 0.0 | 0.00 | 0.27 | 0.27 | 77 | 1001.3 |
| 20260506200132 | 49 | 238 | 5.2 | 4.3 | 0.00 | 0.27 | 0.27 | 75 | 1001.4 |
| 20260506195633 | 48 | 290 | 5.2 | 2.6 | 0.00 | 0.27 | 0.27 | 75 | 1001.4 |
| 20260506195131 | 48 | 182 | 4.3 | 4.3 | 0.00 | 0.27 | 0.27 | 77 | 1001.6 |
| 20260506194601 | 48 | 275 | 7.0 | 4.3 | 0.00 | 0.27 | 0.27 | 76 | 1001.6 |
| 20260506194102 | 48 | 288 | 5.2 | 4.3 | 0.00 | 0.27 | 0.27 | 78 | 1001.5 |
| 20260506193532 | 48 | 235 | 0.9 | 4.3 | 0.00 | 0.27 | 0.27 | 81 | 1001.5 |
| 20260506193001 | 48 | 270 | 2.6 | 5.2 | 0.00 | 0.27 | 0.27 | 81 | 1001.5 |
| 20260506192501 | 48 | 249 | 4.3 | 2.6 | 0.00 | 0.27 | 0.27 | 81 | 1001.5 |
| 20260506191931 | 48 | 237 | 5.2 | 4.3 | 0.00 | 0.27 | 0.27 | 81 | 1001.5 |
| 20260506191432 | 47 | 261 | 2.6 | 4.3 | 0.00 | 0.27 | 0.27 | 79 | 1001.4 |
| 20260506190901 | 47 | 292 | 0.0 | 0.0 | 0.00 | 0.27 | 0.27 | 77 | 1001.4 |
| 20260506190404 | 48 | 289 | 0.9 | 0.0 | 0.00 | 0.27 | 0.27 | 80 | 1001.3 |
| 20260506185833 | 48 | 50 | 0.0 | 2.6 | 0.00 | 0.27 | 0.27 | 79 | 1001.3 |
| 20260506185301 | 47 | 81 | 2.6 | 2.6 | 0.00 | 0.27 | 0.27 | 79 | 1001.4 |
| 20260506184802 | 48 | 84 | 0.0 | 0.0 | 0.00 | 0.27 | 0.27 | 82 | 1001.4 |
| 20260506184233 | 47 | 71 | 0.9 | 0.0 | 0.00 | 0.27 | 0.27 | 82 | 1001.4 |
| 20260506183700 | 48 | 161 | 0.9 | 0.0 | 0.00 | 0.27 | 0.27 | 81 | 1001.3 |
| 20260506182138 | 47 | 99 | 0.9 | 0.0 | 0.00 | 0.27 | 0.27 | 84 | 1001.5 |
| 20260506181600 | 46 | 93 | 0.0 | 0.0 | 0.00 | 0.27 | 0.27 | 82 | 1001.8 |
| 20260506181033 | 47 | 87 | 0.0 | 0.0 | 0.00 | 0.27 | 0.27 | 82 | 1001.8 |
| 20260506180533 | 46 | 112 | 0.0 | 0.0 | 0.00 | 0.27 | 0.27 | 82 | 1001.8 |
| 20260506180004 | 47 | 228 | 0.0 | 0.0 | 0.00 | 0.27 | 0.27 | 84 | 1002.0 |
| 20260506175431 | 46 | 125 | 0.0 | 0.0 | 0.00 | 0.27 | 0.27 | 82 | 1002.0 |
| 20260506174930 | 46 | 257 | 0.0 | 0.0 | 0.00 | 0.27 | 0.27 | 83 | 1002.0 |
| 20260506174431 | 46 | 326 | 0.0 | 0.0 | 0.00 | 0.27 | 0.27 | 84 | 1002.0 |
| 20260506173901 | 46 | 238 | 0.0 | 0.0 | 0.00 | 0.27 | 0.27 | 83 | 1002.1 |
| 20260506172831 | 45 | 32 | 0.0 | 0.0 | 0.01 | 0.27 | 0.27 | 84 | 1002.4 |
| 20260506172331 | 46 | 243 | 6.1 | 4.3 | 0.01 | 0.27 | 0.27 | 84 | 1002.4 |
| 20260506171831 | 47 | 270 | 0.9 | 4.3 | 0.01 | 0.27 | 0.27 | 84 | 1002.4 |
| 20260506171331 | 47 | 223 | 4.3 | 4.3 | 0.01 | 0.27 | 0.27 | 84 | 1002.3 |
| 20260506170301 | 47 | 306 | 0.9 | 0.0 | 0.01 | 0.27 | 0.27 | 83 | 1002.3 |
| 20260506165735 | 47 | 285 | 5.2 | 2.6 | 0.02 | 0.27 | 0.27 | 83 | 1002.3 |
| 20260506165231 | 47 | 267 | 2.6 | 2.6 | 0.02 | 0.27 | 0.27 | 84 | 1002.6 |
| 20260506164700 | 47 | 215 | 2.6 | 2.6 | 0.02 | 0.27 | 0.27 | 87 | 1002.6 |
| 20260506164200 | 47 | 237 | 0.0 | 0.0 | 0.02 | 0.27 | 0.27 | 87 | 1002.6 |
| 20260506163703 | 46 | 213 | 4.3 | 1.7 | 0.03 | 0.27 | 0.27 | 87 | 1002.7 |
| 20260506163131 | 46 | 211 | 0.0 | 0.0 | 0.03 | 0.26 | 0.26 | 87 | 1002.7 |
| 20260506162630 | 46 | 225 | 0.0 | 1.7 | 0.03 | 0.27 | 0.26 | 88 | 1002.7 |
| 20260506162130 | 45 | 209 | 2.6 | 1.7 | 0.03 | 0.30 | 0.26 | 87 | 1002.7 |
| 20260506161102 | 45 | 221 | 5.2 | 5.2 | 0.04 | 0.31 | 0.26 | 88 | 1003.0 |
| 20260506160534 | 45 | 200 | 2.6 | 1.7 | 0.05 | 0.31 | 0.26 | 87 | 1003.0 |
| 20260506160007 | 46 | 204 | 2.6 | 2.6 | 0.05 | 0.31 | 0.26 | 88 | 1003.0 |
| 20260506155434 | 45 | 177 | 1.7 | 1.7 | 0.04 | 0.30 | 0.25 | 88 | 1003.0 |
| 20260506154900 | 45 | 211 | 1.7 | 1.7 | 0.05 | 0.30 | 0.25 | 89 | 1002.9 |
| 20260506153832 | 45 | 228 | 2.6 | 1.7 | 0.04 | 0.29 | 0.24 | 89 | 1003.2 |
| 20260506153332 | 45 | 253 | 1.7 | 1.7 | 0.05 | 0.29 | 0.24 | 89 | 1003.2 |
| 20260506152800 | 45 | 229 | 2.6 | 2.6 | 0.04 | 0.28 | 0.23 | 89 | 1003.2 |
| 20260506152305 | 45 | 242 | 2.6 | 2.6 | 0.05 | 0.28 | 0.23 | 89 | 1003.2 |
| 20260506151800 | 45 | 257 | 0.0 | 0.0 | 0.04 | 0.27 | 0.22 | 88 | 1003.2 |
| 20260506145731 | 45 | 153 | 0.0 | 0.0 | 0.06 | 0.26 | 0.21 | 89 | 1003.2 |
| 20260506145201 | 45 | 194 | 0.0 | 0.0 | 0.06 | 0.26 | 0.21 | 88 | 1003.1 |
| 20260506144630 | 45 | 243 | 0.0 | 0.0 | 0.05 | 0.25 | 0.20 | 88 | 1003.1 |
| 20260506144131 | 45 | 194 | 1.7 | 1.7 | 0.05 | 0.25 | 0.20 | 89 | 1003.1 |
| 20260506143631 | 45 | 225 | 0.9 | 1.7 | 0.04 | 0.24 | 0.19 | 90 | 1003.0 |
| 20260506143130 | 45 | 236 | 5.2 | 2.6 | 0.05 | 0.24 | 0.19 | 89 | 1003.0 |
| 20260506142629 | 45 | 235 | 5.2 | 5.2 | 0.05 | 0.24 | 0.19 | 90 | 1003.0 |
| 20260506142107 | 45 | 213 | 1.7 | 1.7 | 0.04 | 0.23 | 0.18 | 91 | 1003.0 |
| 20260506141601 | 45 | 226 | 6.1 | 4.3 | 0.04 | 0.22 | 0.17 | 90 | 1003.0 |
| 20260506141104 | 45 | 213 | 5.2 | 4.3 | 0.04 | 0.22 | 0.17 | 91 | 1003.0 |
| 20260506140530 | 45 | 123 | 0.0 | 0.0 | 0.04 | 0.21 | 0.16 | 90 | 1003.0 |
| 20260506140031 | 45 | 261 | 1.7 | 2.6 | 0.04 | 0.21 | 0.16 | 90 | 1002.9 |
| 20260506135502 | 45 | 189 | 0.0 | 4.3 | 0.04 | 0.20 | 0.15 | 90 | 1002.9 |
| 20260506134931 | 45 | 203 | 0.9 | 1.7 | 0.05 | 0.20 | 0.15 | 90 | 1003.0 |
| 20260506134430 | 45 | 180 | 4.3 | 2.6 | 0.05 | 0.20 | 0.15 | 90 | 1003.0 |
| 20260506133929 | 45 | 219 | 6.1 | 4.3 | 0.06 | 0.20 | 0.15 | 91 | 1002.9 |
| 20260506133433 | 45 | 192 | 6.1 | 4.3 | 0.05 | 0.19 | 0.14 | 91 | 1002.9 |
| 20260506131829 | 45 | 239 | 6.1 | 4.3 | 0.06 | 0.19 | 0.14 | 91 | 1003.0 |
| 20260506131331 | 45 | 166 | 6.1 | 5.2 | 0.05 | 0.18 | 0.13 | 91 | 1002.9 |
| 20260506130759 | 45 | 146 | 0.9 | 0.0 | 0.05 | 0.17 | 0.12 | 91 | 1002.9 |
| 20260506130300 | 45 | 207 | 1.7 | 1.7 | 0.06 | 0.17 | 0.12 | 91 | 1003.1 |
| 20260506125733 | 45 | 224 | 2.6 | 6.1 | 0.06 | 0.16 | 0.11 | 91 | 1003.1 |
| 20260506125229 | 45 | 240 | 2.6 | 2.6 | 0.06 | 0.16 | 0.11 | 91 | 1003.1 |
| 20260506124230 | 45 | 117 | 0.0 | 1.7 | 0.05 | 0.15 | 0.10 | 91 | 1003.1 |
| 20260506123703 | 45 | 180 | 4.3 | 2.6 | 0.05 | 0.14 | 0.09 | 90 | 1002.9 |
| 20260506123130 | 45 | 187 | 5.2 | 4.3 | 0.06 | 0.15 | 0.09 | 91 | 1002.9 |
| 20260506122602 | 45 | 220 | 0.9 | 4.3 | 0.06 | 0.17 | 0.09 | 91 | 1002.9 |
| 20260506122031 | 45 | 248 | 6.1 | 5.2 | 0.05 | 0.16 | 0.08 | 91 | 1002.9 |
| 20260506121533 | 45 | 241 | 4.3 | 2.6 | 0.05 | 0.17 | 0.08 | 90 | 1002.9 |
| 20260506115930 | 46 | 206 | 0.0 | 0.0 | 0.04 | 0.15 | 0.06 | 90 | 1003.1 |
| 20260506115430 | 46 | 34 | 2.6 | 1.7 | 0.04 | 0.14 | 0.05 | 90 | 1003.1 |
| 20260506114900 | 46 | 207 | 2.6 | 1.7 | 0.04 | 0.14 | 0.05 | 90 | 1003.2 |
| 20260506113832 | 46 | 158 | 0.0 | 0.0 | 0.03 | 0.13 | 0.04 | 91 | 1003.4 |
| 20260506113332 | 46 | 213 | 7.8 | 6.1 | 0.04 | 0.13 | 0.04 | 91 | 1003.4 |
| 20260506112230 | 46 | 170 | 2.6 | 2.6 | 0.03 | 0.12 | 0.03 | 91 | 1003.3 |
| 20260506111732 | 46 | 180 | 4.3 | 2.6 | 0.03 | 0.12 | 0.03 | 91 | 1003.3 |
| 20260506110731 | 46 | 180 | 0.9 | 1.7 | 0.02 | 0.11 | 0.02 | 90 | 1003.2 |
| 20260506110202 | 46 | 165 | 2.6 | 4.3 | 0.02 | 0.11 | 0.02 | 89 | 1002.7 |
| 20260506105631 | 46 | 178 | 0.0 | 0.0 | 0.01 | 0.10 | 0.01 | 89 | 1002.7 |
| 20260506105059 | 47 | 169 | 2.6 | 1.7 | 0.01 | 0.10 | 0.01 | 89 | 1002.7 |
| 20260506104529 | 47 | 115 | 1.7 | 1.7 | 0.01 | 0.10 | 0.01 | 89 | 1002.7 |
| 20260506104034 | 47 | 171 | 0.0 | 1.7 | 0.01 | 0.10 | 0.01 | 88 | 1002.7 |
| 20260506103459 | 47 | 225 | 0.0 | 0.0 | 0.00 | 0.09 | 0.00 | 88 | 1002.7 |
| 20260506103003 | 47 | 162 | 0.0 | 2.6 | 0.00 | 0.09 | 0.00 | 86 | 1002.7 |
| 20260506102430 | 47 | 136 | 1.7 | 4.3 | 0.00 | 0.09 | 0.00 | 86 | 1002.6 |
| 20260506101906 | 47 | 229 | 0.0 | 0.0 | 0.00 | 0.09 | 0.00 | 85 | 1002.6 |
| 20260506100800 | 48 | 232 | 1.7 | 1.7 | 0.00 | 0.09 | 0.00 | 82 | 1002.5 |
| 20260506100259 | 48 | 169 | 0.0 | 0.0 | 0.00 | 0.09 | 0.00 | 82 | 1002.5 |
| 20260506095732 | 48 | 133 | 0.9 | 0.0 | 0.00 | 0.09 | 0.00 | 80 | 1002.5 |
| 20260506095201 | 48 | 155 | 4.3 | 2.6 | 0.00 | 0.09 | 0.00 | 79 | 1002.5 |
| 20260506094630 | 48 | 221 | 4.3 | 4.3 | 0.00 | 0.09 | 0.00 | 78 | 1002.5 |
| 20260506094131 | 49 | 138 | 2.6 | 2.6 | 0.00 | 0.09 | 0.00 | 77 | 1002.5 |
| 20260506093559 | 49 | 146 | 4.3 | 4.3 | 0.00 | 0.09 | 0.00 | 77 | 1002.1 |
| 20260506093029 | 49 | 205 | 0.0 | 0.0 | 0.00 | 0.09 | 0.00 | 76 | 1002.1 |
| 20260506092501 | 49 | 177 | 4.3 | 2.6 | 0.00 | 0.09 | 0.00 | 76 | 1002.2 |
| 20260506091930 | 49 | 118 | 6.1 | 4.3 | 0.00 | 0.09 | 0.00 | 76 | 1002.2 |
| 20260506091429 | 49 | 102 | 2.6 | 4.3 | 0.00 | 0.09 | 0.00 | 76 | 1001.8 |
| 20260506090933 | 49 | 240 | 6.1 | 7.8 | 0.00 | 0.09 | 0.00 | 76 | 1001.8 |
| 20260506090400 | 49 | 187 | 5.2 | 4.3 | 0.00 | 0.09 | 0.00 | 76 | 1001.9 |
| 20260506085901 | 49 | 247 | 7.0 | 7.0 | 0.00 | 0.09 | 0.00 | 76 | 1001.9 |
| 20260506085359 | 49 | 222 | 8.7 | 7.0 | 0.00 | 0.09 | 0.00 | 76 | 1001.9 |
| 20260506084829 | 49 | 192 | 4.3 | 4.3 | 0.00 | 0.09 | 0.00 | 76 | 1002.1 |
| 20260506084259 | 49 | 229 | 10.4 | 8.7 | 0.00 | 0.09 | 0.00 | 76 | 1002.1 |
| 20260506083800 | 49 | 239 | 7.0 | 5.2 | 0.00 | 0.09 | 0.00 | 76 | 1002.3 |
| 20260506083229 | 49 | 240 | 6.1 | 6.1 | 0.00 | 0.09 | 0.00 | 76 | 1002.3 |
| 20260506082729 | 49 | 259 | 10.4 | 8.7 | 0.00 | 0.09 | 0.00 | 76 | 1002.0 |
| 20260506082200 | 49 | 257 | 5.2 | 6.1 | 0.00 | 0.09 | 0.00 | 77 | 1002.0 |
| 20260506081630 | 49 | 224 | 6.1 | 7.0 | 0.00 | 0.09 | 0.00 | 77 | 1001.8 |
| 20260506081130 | 49 | 188 | 7.8 | 5.2 | 0.00 | 0.09 | 0.00 | 77 | 1001.7 |
| 20260506080602 | 49 | 254 | 7.8 | 6.1 | 0.00 | 0.09 | 0.00 | 77 | 1001.7 |
| 20260506073503 | 50 | 249 | 6.1 | 5.2 | 0.00 | 0.09 | 0.00 | 77 | 1002.1 |
| 20260506072929 | 50 | 343 | 6.1 | 4.3 | 0.00 | 0.09 | 0.00 | 77 | 1002.1 |
| 20260506072434 | 50 | 256 | 5.2 | 6.1 | 0.00 | 0.09 | 0.00 | 77 | 1001.9 |
| 20260506071859 | 50 | 213 | 8.7 | 8.7 | 0.00 | 0.09 | 0.00 | 77 | 1001.9 |
| 20260506071402 | 50 | 257 | 6.1 | 8.7 | 0.00 | 0.09 | 0.00 | 77 | 1001.9 |
| 20260506070900 | 50 | 225 | 15.6 | 12.2 | 0.00 | 0.09 | 0.00 | 76 | 1001.9 |